Regional Weather Roundup
Issued by NWS Memphis, TN

Home | Current Version | Previous Version | Text Only | Print | Product List | Glossary On
Versions: 1 2 3 4 5 6 7 8 9 10 11 12 13 14 15 16 17 18 19 20 21 22 23 24 25 26 27 28 29 30 31 32 33 34 35 36 37 38 39 40 41 42 43 44 45 46 47 48 49 50
000
ASUS44 KMEG 280310
RWRMEG
MEMPHIS CWA HOURLY WEATHER ROUNDUP
NATIONAL WEATHER SERVICE MEMPHIS TN
1000 PM CDT WED JUL 27 2016

...WEST TENNESSEE...

CITY           SKY/WX    TMP DP  RH WIND       PRES   REMARKS
MEMPHIS INTL   CLOUDY    78  75  90 S5        29.91R
NWS MEMPHIS      N/A     76 N/A N/A MISG        N/A
JACKSON        CLOUDY    80  75  84 CALM      29.94R
LEXINGTON      PTCLDY    81  72  74 CALM      29.94R
DYERSBURG      CLOUDY    77  73  88 CALM      29.94R
UNION CITY     MOCLDY    72  72 100 NE9       29.94R
PARIS          MOCLDY    72  72 100 N7        29.97R


...EASTERN ARKANSAS...

CITY           SKY/WX    TMP DP  RH WIND       PRES   REMARKS
JONESBORO      CLOUDY    77  75  93 CALM      29.92R
WEST MEMPHIS   CLOUDY    76  74  93 CALM      29.90S
BATESVILLE     MOCLDY    75  73  94 CALM      29.92F
NEWPORT        MOCLDY    76  76 100 CALM      29.93S
WALNUT RIDGE   PTCLDY    75  73  94 NE5       29.92R
BLYTHEVILLE    CLOUDY    77  77 100 CALM      29.93S
SEARCY         MOCLDY    75  75 100 CALM      29.93F
STUTTGART      CLOUDY    75  70  83 W7        29.92S
PINE BLUFF     CLOUDY    75  73  93 W5        29.94R
MONTICELLO     CLOUDY    76  73  91 W3        29.95R


...NORTH MISSISSIPPI...

CITY           SKY/WX    TMP DP  RH WIND       PRES   REMARKS
TUPELO         PTCLDY    78  73  84 S6        29.95R
OXFORD         LGT RAIN  75  73  94 S7        29.95S
BATESVILLE     CLOUDY    75  72  89 S3        29.93R
TUNICA         CLOUDY    73  73 100 SE3       29.92R
CLARKSDALE     CLOUDY    77  77 100 CALM      29.91R
CORINTH        MOCLDY    77  75  94 SE6       29.95R
GREENWOOD      CLOUDY    76  72  87 SW9       29.94R
COLUMBUS       CLOUDY    77  76  95 S6        29.96R
GOLDEN TRIANGL MOCLDY    75  70  83 S7        29.96R


...SOUTHEAST MISSOURI...

CITY           SKY/WX    TMP DP  RH WIND       PRES   REMARKS
KENNETT        CLOUDY    77  75  94 NW3       29.93R
WEST PLAINS    CLOUDY    73  70  90 CALM      29.98R
POPLAR BLUFF   LGT RAIN  75  73  93 N3        29.94R
CAPE GIRARDEAU CLOUDY    75  72  90 CALM      29.95R


...NORTHWEST ALABAMA...

CITY           SKY/WX    TMP DP  RH WIND       PRES   REMARKS
MUSCLE SHOALS  PTCLDY    78  72  81 S3        29.98R


...MIDDLE TENNESSEE...

CITY           SKY/WX    TMP DP  RH WIND       PRES   REMARKS
NASHVILLE      CLOUDY    83  71  67 S3        29.95R
CLARKSVILLE    LGT RAIN  74  71  91 N14G24    29.97R
COLUMBIA       MOCLDY    82  82 100 S8        29.94S HX  97


...WESTERN KENTUCKY...

CITY           SKY/WX    TMP DP  RH WIND       PRES   REMARKS
PADUCAH        RAIN      72  69  90 SE7       29.96R FOG
FORT CAMPBELL  DRIZZLE   74  72  95 N9        29.96R


...CENTRAL ARKANSAS...

CITY           SKY/WX    TMP DP  RH WIND       PRES   REMARKS
LITTLE ROCK    MOCLDY    79  74  84 CALM      29.93R


SKY/WX REPORTED AS FAIR MEANS FEW OR NO CLOUDS BELOW
12 THOUSAND FEET.





USA.gov is the U.S. government's official web portal to all federal, state and local government web resources and services.